GW2490 Weather Reports


Display with metric or nautical units.
time (UTC)temp
F
wind
direction
speed
MPH
gust
MPH
rain 1hr
in
rain 24hr
in
rain mn
in
humidity
%
barometer
mb
20260905065003 0 0.0 0.0 0.00 0.00 0.00
20260905064957 57 341 1.0 2.0 0.00 0.00 0.00 74 1015.8
20260905064457 57 340 2.0 4.0 0.00 0.00 0.00 73 1015.8
20260905064002 0 0.0 0.0 0.00 0.00 0.00
20260905063957 57 318 2.0 4.0 0.00 0.00 0.00 73 1015.7
20260905063503 0 0.0 0.0 0.00 0.00 0.00
20260905063457 56 314 2.0 3.0 0.00 0.00 0.00 70 1015.8
20260905063003 0 0.0 0.0 0.00 0.00 0.00
20260905062957 56 339 1.0 3.0 0.00 0.00 0.00 70 1015.8
20260905062503 0 0.0 0.0 0.00 0.00 0.00
20260905062457 56 30 0.0 1.0 0.00 0.00 0.00 71 1015.8
20260905062003 0 0.0 0.0 0.00 0.00 0.00
20260905061957 56 18 0.0 2.0 0.00 0.00 0.00 71 1015.8
20260905061503 0 0.0 0.0 0.00 0.00 0.00
20260905061457 56 339 1.0 2.0 0.00 0.00 0.00 70 1015.7
20260905061001 0 0.0 0.0 0.00 0.00 0.00
20260905060958 56 346 1.0 2.0 0.00 0.00 0.00 70 1015.7
20260905060500 0 0.0 0.0 0.00 0.00 0.00
20260905060458 57 24 1.0 2.0 0.00 0.00 0.00 70 1015.7
20260905055959 0 0.0 0.0 0.00 0.00 0.00
20260905055957 57 56 0.0 2.0 0.00 0.00 0.00 69 1015.7
20260905055500 0 0.0 0.0 0.00 0.00 0.00
20260905055457 57 11 0.0 1.0 0.00 0.00 0.00 68 1015.8
20260905055008 57 300 2.0 2.0 0.00 0.00 0.00 67 1015.8
20260905054958 0 0.0 0.0 0.00 0.00 0.00
20260905054458 0 0.0 0.0 0.00 0.00 0.00
20260905053958 0 0.0 0.0 0.00 0.00 0.00
20260905053458 0 0.0 0.0 0.00 0.00 0.00
20260905052957 56 38 0.0 2.0 0.00 0.00 0.00 69 1015.8
20260905052458 0 0.0 0.0 0.00 0.00 0.00
20260905051957 56 57 1.0 3.0 0.00 0.00 0.00 68 1015.8
20260905051457 56 30 1.0 2.0 0.00 0.00 0.00 67 1015.8
20260905051002 56 28 1.0 2.0 0.00 0.00 0.00 67 1015.8
20260905050956 0 0.0 0.0 0.00 0.00 0.00
20260905050457 0 0.0 0.0 0.00 0.00 0.00
20260905045957 56 8 0.0 1.0 0.00 0.00 0.00 67 1015.9
20260905045457 56 25 2.0 2.0 0.00 0.00 0.00 65 1015.8
20260905044957 56 28 0.0 2.0 0.00 0.00 0.00 65 1015.9
20260905044457 57 329 1.0 2.0 0.00 0.00 0.00 66 1015.9
20260905043957 0 0.0 0.0 0.00 0.00 0.00
20260905043457 57 30 1.0 3.0 0.00 0.00 0.00 65 1015.9
20260905042957 57 51 2.0 3.0 0.00 0.00 0.00 66 1015.9
20260905042457 57 29 1.0 2.0 0.00 0.00 0.00 64 1015.8
20260905041957 57 33 1.0 2.0 0.00 0.00 0.00 65 1015.9
20260905041457 57 21 1.0 2.0 0.00 0.00 0.00 64 1015.8
20260905040957 0 0.0 0.0 0.00 0.00 0.00
20260905040457 56 63 1.0 2.0 0.00 0.00 0.00 65 1015.9
20260905040454 0 0.0 0.0 0.00 0.00 0.00
20260905035958 56 40 1.0 3.0 0.00 0.00 0.00 66 1015.8
20260905035953 0 0.0 0.0 0.00 0.00 0.00
20260905035458 56 50 1.0 2.0 0.00 0.00 0.00 67 1015.8
20260905035454 0 0.0 0.0 0.00 0.00 0.00
20260905034957 56 35 1.0 2.0 0.00 0.00 0.00 67 1015.8
20260905034954 0 0.0 0.0 0.00 0.00 0.00
20260905034457 57 29 1.0 2.0 0.00 0.00 0.00 67 1015.7
20260905034453 0 0.0 0.0 0.00 0.00 0.00
20260905033956 57 32 1.0 2.0 0.00 0.00 0.00 67 1015.7
20260905033457 57 32 1.0 3.0 0.00 0.00 0.00 67 1015.7
20260905032957 57 11 0.0 2.0 0.00 0.00 0.00 67 1015.6
20260905032953 0 0.0 0.0 0.00 0.00 0.00
20260905032457 57 333 0.0 2.0 0.00 0.00 0.00 67 1015.6
20260905032454 0 0.0 0.0 0.00 0.00 0.00
20260905031957 57 6 0.0 1.0 0.00 0.00 0.00 67 1015.5
20260905031458 57 43 0.0 2.0 0.00 0.00 0.00 66 1015.5
20260905031452 0 0.0 0.0 0.00 0.00 0.00
20260905030957 58 24 0.0 1.0 0.00 0.00 0.00 66 1015.4
20260905030948 0 0.0 0.0 0.00 0.00 0.00
20260905030457 58 7 1.0 2.0 0.00 0.00 0.00 65 1015.4
20260905030450 0 0.0 0.0 0.00 0.00 0.00
20260905025957 58 322 1.0 3.0 0.00 0.00 0.00 64 1015.3
20260905025948 0 0.0 0.0 0.00 0.00 0.00
20260905025457 58 316 1.0 3.0 0.00 0.00 0.00 65 1015.3
20260905024957 58 317 1.0 3.0 0.00 0.00 0.00 64 1015.3
20260905024950 0 0.0 0.0 0.00 0.00 0.00
20260905024458 58 312 2.0 3.0 0.00 0.00 0.00 63 1015.2
20260905024446 0 0.0 0.0 0.00 0.00 0.00
20260905023957 58 319 3.0 5.0 0.00 0.00 0.00 64 1015.2
20260905023946 0 0.0 0.0 0.00 0.00 0.00
20260905023457 58 316 2.0 3.0 0.00 0.00 0.00 65 1015.2
20260905023445 0 0.0 0.0 0.00 0.00 0.00
20260905022957 58 311 2.0 4.0 0.00 0.00 0.00 65 1015.2
20260905022946 0 0.0 0.0 0.00 0.00 0.00
20260905022458 58 324 2.0 4.0 0.00 0.00 0.00 66 1015.2
20260905022443 0 0.0 0.0 0.00 0.00 0.00
20260905021957 58 328 2.0 4.0 0.00 0.00 0.00 67 1015.2
20260905021943 0 0.0 0.0 0.00 0.00 0.00
20260905021457 58 353 2.0 4.0 0.00 0.00 0.00 69 1015.3
20260905020957 59 345 0.0 2.0 0.00 0.00 0.00 70 1015.2
20260905020938 0 0.0 0.0 0.00 0.00 0.00
20260905020457 59 351 1.0 2.0 0.00 0.00 0.00 70 1015.2
20260905020437 0 0.0 0.0 0.00 0.00 0.00
20260905015959 59 310 1.0 2.0 0.00 0.00 0.00 71 1015.0
20260905015938 0 0.0 0.0 0.00 0.00 0.00
20260905015457 59 340 2.0 3.0 0.00 0.00 0.00 73 1015.0
20260905015437 0 0.0 0.0 0.00 0.00 0.00
20260905014957 58 314 2.0 3.0 0.00 0.00 0.00 75 1014.9
20260905014938 0 0.0 0.0 0.00 0.00 0.00
20260905014457 58 318 3.0 6.0 0.00 0.00 0.00 76 1014.9
20260905014437 0 0.0 0.0 0.00 0.00 0.00
20260905013957 58 312 3.0 5.0 0.00 0.00 0.00 77 1014.8
20260905013457 58 316 4.0 5.0 0.00 0.00 0.00 76 1014.8
20260905013437 0 0.0 0.0 0.00 0.00 0.00
20260905012957 58 309 3.0 3.0 0.00 0.00 0.00 78 1014.8
20260905012457 58 307 3.0 4.0 0.00 0.00 0.00 77 1014.9
20260905012438 0 0.0 0.0 0.00 0.00 0.00
20260905011957 59 311 3.0 6.0 0.00 0.00 0.00 76 1014.8
20260905011936 0 0.0 0.0 0.00 0.00 0.00
20260905011458 59 308 3.0 5.0 0.00 0.00 0.00 76 1014.7
20260905011432 0 0.0 0.0 0.00 0.00 0.00
20260905010957 58 295 3.0 5.0 0.00 0.00 0.00 77 1014.8
20260905010932 0 0.0 0.0 0.00 0.00 0.00
20260905010458 58 308 2.0 4.0 0.00 0.00 0.00 78 1014.8
20260905010432 0 0.0 0.0 0.00 0.00 0.00
20260905005957 58 315 3.0 5.0 0.00 0.00 0.00 78 1014.8
20260905005933 0 0.0 0.0 0.00 0.00 0.00
20260905005457 58 307 3.0 5.0 0.00 0.00 0.00 78 1014.8
20260905005433 0 0.0 0.0 0.00 0.00 0.00
20260905004957 59 303 1.0 5.0 0.00 0.00 0.00 77 1014.7
20260905004457 59 297 2.0 3.0 0.00 0.00 0.00 77 1014.7
20260905004432 0 0.0 0.0 0.00 0.00 0.00
20260905003957 59 311 2.0 3.0 0.00 0.00 0.00 76 1014.6
20260905003933 0 0.0 0.0 0.00 0.00 0.00
20260905003457 59 313 2.0 4.0 0.00 0.00 0.00 75 1014.6
20260905003433 0 0.0 0.0 0.00 0.00 0.00
20260905002958 59 289 2.0 4.0 0.00 0.00 0.00 75 1014.5
20260905002932 0 0.0 0.0 0.00 0.00 0.00
20260905002458 59 303 2.0 5.0 0.00 0.00 0.00 75 1014.5
20260905001957 59 296 4.0 8.0 0.00 0.00 0.00 75 1014.4
20260905001457 59 300 2.0 3.0 0.00 0.00 0.00 76 1014.5
20260905001427 0 0.0 0.0 0.00 0.00 0.00
20260905000957 59 301 6.0 10.0 0.00 0.00 0.00 75 1014.4
20260905000927 0 0.0 0.0 0.00 0.00 0.00
20260905000457 59 285 2.0 4.0 0.00 0.00 0.00 76 1014.4
20260905000427 0 0.0 0.0 0.00 0.00 0.00
20260904235957 59 307 3.0 5.0 0.00 0.00 0.00 76 1014.4
20260904235928 0 0.0 0.0 0.00 0.00 0.00
20260904235457 59 301 2.0 4.0 0.00 0.00 0.00 76 1014.3
20260904235427 0 0.0 0.0 0.00 0.00 0.00
20260904234957 60 308 3.0 4.0 0.00 0.00 0.00 74 1014.3
20260904234930 0 0.0 0.0 0.00 0.00 0.00
20260904234458 59 298 4.0 7.0 0.00 0.00 0.00 74 1014.3
20260904233957 59 300 2.0 4.0 0.00 0.00 0.00 75 1014.2
20260904233928 0 0.0 0.0 0.00 0.00 0.00
20260904233457 59 307 4.0 6.0 0.00 0.00 0.00 76 1014.2
20260904233427 0 0.0 0.0 0.00 0.00 0.00
20260904232957 59 314 3.0 4.0 0.00 0.00 0.00 76 1014.2
20260904232928 0 0.0 0.0 0.00 0.00 0.00
20260904232457 59 306 2.0 5.0 0.00 0.00 0.00 76 1014.2
20260904232425 0 0.0 0.0 0.00 0.00 0.00
20260904231957 59 303 3.0 6.0 0.00 0.00 0.00 76 1014.2
20260904231926 0 0.0 0.0 0.00 0.00 0.00
20260904231459 59 307 3.0 6.0 0.00 0.00 0.00 76 1014.2
20260904231422 0 0.0 0.0 0.00 0.00 0.00
20260904230957 59 302 3.0 7.0 0.00 0.00 0.00 76 1014.3
20260904230923 0 0.0 0.0 0.00 0.00 0.00
20260904230457 59 288 2.0 4.0 0.00 0.00 0.00 77 1014.2
20260904230422 0 0.0 0.0 0.00 0.00 0.00
20260904225958 59 318 3.0 5.0 0.00 0.00 0.00 77 1014.3
20260904225923 0 0.0 0.0 0.00 0.00 0.00
20260904225457 59 304 3.0 7.0 0.00 0.00 0.00 78 1014.2
20260904224957 59 306 4.0 6.0 0.00 0.00 0.00 78 1014.2
20260904224923 0 0.0 0.0 0.00 0.00 0.00
20260904224457 59 307 3.0 6.0 0.00 0.00 0.00 77 1014.2
20260904224422 0 0.0 0.0 0.00 0.00 0.00
20260904223958 60 307 4.0 6.0 0.00 0.00 0.00 78 1014.2
20260904223923 0 0.0 0.0 0.00 0.00 0.00
20260904223458 60 300 2.0 4.0 0.00 0.00 0.00 77 1014.2
20260904223422 0 0.0 0.0 0.00 0.00 0.00
20260904222957 60 292 3.0 5.0 0.00 0.00 0.00 77 1014.2
20260904222923 0 0.0 0.0 0.00 0.00 0.00
20260904222457 60 307 2.0 5.0 0.00 0.00 0.00 76 1014.1
20260904222423 0 0.0 0.0 0.00 0.00 0.00
20260904221957 60 284 2.0 5.0 0.00 0.00 0.00 74 1014.2
20260904221921 0 0.0 0.0 0.00 0.00 0.00
20260904221458 60 302 3.0 5.0 0.00 0.00 0.00 74 1014.2
20260904221420 0 0.0 0.0 0.00 0.00 0.00
20260904220957 59 301 3.0 4.0 0.00 0.00 0.00 74 1014.3
20260904220457 59 295 3.0 7.0 0.00 0.00 0.00 75 1014.3
20260904215959 59 307 4.0 8.0 0.00 0.00 0.00 75 1014.4
20260904215920 0 0.0 0.0 0.00 0.00 0.00
20260904215457 60 301 5.0 8.0 0.00 0.00 0.00 78 1014.3
20260904215421 0 0.0 0.0 0.00 0.00 0.00
20260904214957 60 304 4.0 8.0 0.00 0.00 0.00 77 1014.3
20260904214457 61 291 4.0 7.0 0.00 0.00 0.00 75 1014.3
20260904214421 0 0.0 0.0 0.00 0.00 0.00
20260904213957 61 285 4.0 6.0 0.00 0.00 0.00 73 1014.2
20260904213921 0 0.0 0.0 0.00 0.00 0.00
20260904213457 61 293 4.0 7.0 0.00 0.00 0.00 74 1014.2
20260904213421 0 0.0 0.0 0.00 0.00 0.00
20260904212958 61 312 4.0 7.0 0.00 0.00 0.00 73 1014.1
20260904212922 0 0.0 0.0 0.00 0.00 0.00
20260904212457 61 305 3.0 6.0 0.00 0.00 0.00 72 1014.1
20260904212421 0 0.0 0.0 0.00 0.00 0.00
20260904211957 61 292 4.0 8.0 0.00 0.00 0.00 72 1014.0
20260904211921 0 0.0 0.0 0.00 0.00 0.00
20260904211458 61 292 4.0 9.0 0.00 0.00 0.00 72 1013.9
20260904211419 0 0.0 0.0 0.00 0.00 0.00
20260904210958 61 314 4.0 7.0 0.00 0.00 0.00 71 1013.9
20260904210918 0 0.0 0.0 0.00 0.00 0.00
20260904210457 60 266 3.0 5.0 0.00 0.00 0.00 74 1013.9
20260904210419 0 0.0 0.0 0.00 0.00 0.00
20260904205957 59 289 4.0 7.0 0.00 0.00 0.00 76 1014.2
20260904205918 0 0.0 0.0 0.00 0.00 0.00
20260904205457 60 310 4.0 6.0 0.00 0.00 0.00 76 1014.3
20260904204957 60 278 2.0 6.0 0.00 0.00 0.00 75 1014.2
20260904204919 0 0.0 0.0 0.00 0.00 0.00
20260904204457 61 293 4.0 8.0 0.00 0.00 0.00 73 1014.0
20260904204419 0 0.0 0.0 0.00 0.00 0.00
20260904203959 60 305 5.0 10.0 0.00 0.00 0.00 74 1013.7
20260904203919 0 0.0 0.0 0.00 0.00 0.00
20260904203457 60 304 5.0 9.0 0.00 0.00 0.00 76 1013.9
20260904203419 0 0.0 0.0 0.00 0.00 0.00
20260904202957 60 301 2.0 3.0 0.00 0.00 0.00 73 1013.7
20260904202457 59 280 3.0 6.0 0.00 0.00 0.00 76 1013.8
20260904202419 0 0.0 0.0 0.00 0.00 0.00
20260904201957 59 284 2.0 4.0 0.00 0.00 0.00 76 1014.0
20260904201917 0 0.0 0.0 0.00 0.00 0.00
20260904201457 59 306 6.0 8.0 0.00 0.00 0.00 77 1014.0
20260904200958 59 300 4.0 6.0 0.00 0.00 0.00 76 1014.0
20260904200916 0 0.0 0.0 0.00 0.00 0.00
20260904200457 60 295 3.0 4.0 0.00 0.00 0.00 75 1013.9
20260904195957 60 284 5.0 9.0 0.00 0.00 0.00 74 1013.9
20260904195458 60 284 2.0 5.0 0.00 0.00 0.00 74 1013.8
20260904194959 60 298 2.0 4.0 0.00 0.00 0.00 74 1013.9
20260904194917 0 0.0 0.0 0.00 0.00 0.00
20260904194457 61 290 5.0 8.0 0.00 0.00 0.00 72 1013.9
20260904193957 62 264 4.0 6.0 0.00 0.00 0.00 70 1013.6
20260904193457 62 287 3.0 6.0 0.00 0.00 0.00 70 1013.5
20260904192958 62 314 4.0 5.0 0.00 0.00 0.00 70 1013.6
20260904192917 0 0.0 0.0 0.00 0.00 0.00
20260904192457 61 234 1.0 4.0 0.00 0.00 0.00 72 1013.5
20260904192417 0 0.0 0.0 0.00 0.00 0.00
20260904191957 61 302 4.0 6.0 0.00 0.00 0.00 72 1013.5
20260904191917 0 0.0 0.0 0.00 0.00 0.00
20260904191457 60 292 4.0 8.0 0.00 0.00 0.00 74 1013.6
20260904191415 0 0.0 0.0 0.00 0.00 0.00
20260904190958 60 284 3.0 5.0 0.00 0.00 0.00 74 1013.5
20260904190914 0 0.0 0.0 0.00 0.00 0.00
20260904190457 59 269 4.0 7.0 0.00 0.00 0.00 75 1013.6
20260904190415 0 0.0 0.0 0.00 0.00 0.00
20260904185957 58 169 1.0 2.0 0.00 0.00 0.00 77 1013.5
20260904185914 0 0.0 0.0 0.00 0.00 0.00
20260904185457 58 298 3.0 4.0 0.00 0.00 0.00 78 1013.6
20260904185415 0 0.0 0.0 0.00 0.00 0.00
20260904184958 57 305 2.0 5.0 0.00 0.00 0.00 82 1013.7
20260904184914 0 0.0 0.0 0.00 0.00 0.00
20260904184457 57 311 2.0 3.0 0.00 0.00 0.00 83 1013.7
20260904184415 0 0.0 0.0 0.00 0.00 0.00
20260904183957 57 265 4.0 6.0 0.00 0.00 0.00 83 1013.8
20260904183915 0 0.0 0.0 0.00 0.00 0.00
20260904183457 57 305 2.0 4.0 0.00 0.00 0.00 83 1013.7
20260904182957 57 261 2.0 3.0 0.00 0.00 0.00 84 1013.7
20260904182914 0 0.0 0.0 0.00 0.00 0.00
20260904182458 56 289 1.0 2.0 0.00 0.00 0.00 85 1013.8
20260904182413 0 0.0 0.0 0.00 0.00 0.00
20260904181957 57 249 2.0 4.0 0.00 0.00 0.00 84 1013.7
20260904181913 0 0.0 0.0 0.00 0.00 0.00
20260904181459 57 306 2.0 4.0 0.00 0.00 0.00 83 1013.7
20260904181413 0 0.0 0.0 0.00 0.00 0.00
20260904180957 58 301 2.0 5.0 0.00 0.00 0.00 82 1013.6
20260904180912 0 0.0 0.0 0.00 0.00 0.00
20260904180457 57 254 3.0 4.0 0.00 0.00 0.00 82 1013.5
20260904180413 0 0.0 0.0 0.00 0.00 0.00
20260904175957 58 260 2.0 5.0 0.00 0.00 0.00 82 1013.5
20260904175913 0 0.0 0.0 0.00 0.00 0.00
20260904175457 58 292 2.0 4.0 0.00 0.00 0.00 81 1013.4
20260904175413 0 0.0 0.0 0.00 0.00 0.00
20260904174958 58 280 3.0 5.0 0.00 0.00 0.00 81 1013.5
20260904174913 0 0.0 0.0 0.00 0.00 0.00
20260904174457 58 265 4.0 6.0 0.00 0.00 0.00 81 1013.5
20260904174413 0 0.0 0.0 0.00 0.00 0.00
20260904173958 58 325 2.0 4.0 0.00 0.00 0.00 81 1013.4
20260904173913 0 0.0 0.0 0.00 0.00 0.00
20260904173457 57 297 1.0 2.0 0.00 0.00 0.00 81 1013.5
20260904173413 0 0.0 0.0 0.00 0.00 0.00
20260904172958 57 276 3.0 6.0 0.00 0.00 0.00 81 1013.5
20260904172914 0 0.0 0.0 0.00 0.00 0.00
20260904172458 57 231 1.0 2.0 0.00 0.00 0.00 81 1013.4
20260904171959 56 287 2.0 5.0 0.00 0.00 0.00 82 1013.4
20260904171910 0 0.0 0.0 0.00 0.00 0.00
20260904171458 56 225 2.0 4.0 0.00 0.00 0.00 82 1013.4
20260904171411 0 0.0 0.0 0.00 0.00 0.00
20260904170957 55 159 3.0 5.0 0.00 0.00 0.00 84 1013.4
20260904170910 0 0.0 0.0 0.00 0.00 0.00
20260904170457 55 171 3.0 4.0 0.00 0.00 0.00 84 1013.4
20260904165959 55 179 3.0 5.0 0.00 0.00 0.00 84 1013.3
20260904165457 55 177 2.0 3.0 0.00 0.00 0.00 85 1013.3
20260904164957 55 183 2.0 2.0 0.00 0.00 0.00 86 1013.3
20260904164457 55 191 1.0 3.0 0.00 0.00 0.00 86 1013.3
20260904164409 0 0.0 0.0 0.00 0.00 0.00
20260904163957 55 189 2.0 4.0 0.00 0.00 0.00 85 1013.3
20260904163909 0 0.0 0.0 0.00 0.00 0.00
20260904163457 55 179 3.0 3.0 0.00 0.00 0.00 85 1013.3
20260904163409 0 0.0 0.0 0.00 0.00 0.00
20260904162959 56 166 2.0 3.0 0.00 0.00 0.00 84 1013.3
20260904162910 0 0.0 0.0 0.00 0.00 0.00
20260904162458 56 227 1.0 3.0 0.00 0.00 0.00 85 1013.2
20260904162002 55 107 0.0 2.0 0.00 0.00 0.00 85 1013.2
20260904161909 0 0.0 0.0 0.00 0.00 0.00
20260904161457 55 185 2.0 2.0 0.00 0.00 0.00 84 1013.1
20260904161410 0 0.0 0.0 0.00 0.00 0.00
20260904160959 55 134 0.0 1.0 0.00 0.00 0.00 86 1013.2
20260904160910 0 0.0 0.0 0.00 0.00 0.00
20260904160457 55 195 1.0 3.0 0.00 0.00 0.00 86 1013.2
20260904155957 55 360 0.0 0.0 0.00 0.00 0.00 87 1013.2
20260904155459 55 360 0.0 0.0 0.00 0.00 0.00 88 1013.1
20260904155356 0 0.0 0.0 0.00 0.00 0.00
20260904154958 55 292 2.0 3.0 0.00 0.00 0.00 88 1013.1
20260904154857 0 0.0 0.0 0.00 0.00 0.00
20260904154457 55 331 0.0 1.0 0.00 0.00 0.00 88 1013.1
20260904154357 0 0.0 0.0 0.00 0.00 0.00
20260904153958 55 13 1.0 2.0 0.00 0.00 0.00 88 1013.1
20260904153857 0 0.0 0.0 0.00 0.00 0.00
20260904153458 55 283 2.0 4.0 0.00 0.00 0.00 88 1013.0
20260904152957 55 308 1.0 2.0 0.00 0.00 0.00 88 1013.0
20260904152853 0 0.0 0.0 0.00 0.00 0.00
20260904152457 55 251 1.0 2.0 0.00 0.00 0.00 88 1012.8
20260904152352 0 0.0 0.0 0.00 0.00 0.00
20260904151958 54 303 1.0 4.0 0.00 0.00 0.00 88 1013.0
20260904151852 0 0.0 0.0 0.00 0.00 0.00
20260904151500 54 251 0.0 2.0 0.00 0.00 0.00 88 1012.8
20260904150957 54 259 1.0 2.0 0.00 0.00 0.00 88 1012.8
20260904150852 0 0.0 0.0 0.00 0.00 0.00
20260904150458 54 318 0.0 4.0 0.00 0.00 0.00 89 1012.7
20260904150353 0 0.0 0.0 0.00 0.00 0.00
20260904145958 54 311 2.0 4.0 0.00 0.00 0.00 89 1012.7
20260904145852 0 0.0 0.0 0.00 0.00 0.00
20260904145457 54 272 0.0 1.0 0.00 0.00 0.00 89 1012.7
20260904145353 0 0.0 0.0 0.00 0.00 0.00
20260904144957 54 214 0.0 0.0 0.00 0.00 0.00 89 1012.7
20260904144852 0 0.0 0.0 0.00 0.00 0.00
20260904144457 54 321 0.0 2.0 0.00 0.00 0.00 90 1012.7
20260904144352 0 0.0 0.0 0.00 0.00 0.00
20260904143957 54 315 2.0 3.0 0.00 0.00 0.00 90 1012.5
20260904143853 0 0.0 0.0 0.00 0.00 0.00
20260904143457 54 313 2.0 4.0 0.00 0.00 0.00 89 1012.5
20260904143353 0 0.0 0.0 0.00 0.00 0.00
20260904143001 54 303 1.0 2.0 0.00 0.00 0.00 89 1012.4
20260904142852 0 0.0 0.0 0.00 0.00 0.00
20260904142457 54 278 0.0 1.0 0.00 0.00 0.00 88 1012.4
20260904142353 0 0.0 0.0 0.00 0.00 0.00
20260904141957 53 315 1.0 2.0 0.00 0.00 0.00 87 1012.4
20260904141853 0 0.0 0.0 0.00 0.00 0.00
20260904141457 53 67 0.0 2.0 0.00 0.00 0.00 87 1012.4
20260904141353 0 0.0 0.0 0.00 0.00 0.00
20260904140958 53 93 3.0 4.0 0.00 0.00 0.00 87 1012.3
20260904140853 0 0.0 0.0 0.00 0.00 0.00
20260904140458 53 132 2.0 2.0 0.00 0.00 0.00 89 1012.3
20260904140353 0 0.0 0.0 0.00 0.00 0.00
20260904135958 53 325 0.0 1.0 0.00 0.00 0.00 89 1012.2
20260904135853 0 0.0 0.0 0.00 0.00 0.00
20260904135458 53 307 0.0 1.0 0.00 0.00 0.00 89 1012.1
20260904135352 0 0.0 0.0 0.00 0.00 0.00
20260904134957 54 360 0.0 0.0 0.00 0.00 0.00 89 1012.1
20260904134853 0 0.0 0.0 0.00 0.00 0.00
20260904134458 54 360 0.0 0.0 0.00 0.00 0.00 89 1012.0
20260904134354 0 0.0 0.0 0.00 0.00 0.00
20260904133958 54 360 0.0 0.0 0.00 0.00 0.00 89 1012.0
20260904133853 0 0.0 0.0 0.00 0.00 0.00
20260904133457 54 22 0.0 1.0 0.00 0.00 0.00 89 1011.9
20260904133356 0 0.0 0.0 0.00 0.00 0.00
20260904132959 54 317 1.0 2.0 0.00 0.00 0.00 89 1011.9
20260904132852 0 0.0 0.0 0.00 0.00 0.00
20260904132502 54 299 0.0 2.0 0.00 0.00 0.00 89 1012.0
20260904132351 0 0.0 0.0 0.00 0.00 0.00
20260904131958 54 306 1.0 2.0 0.00 0.00 0.00 88 1011.9
20260904131856 0 0.0 0.0 0.00 0.00 0.00
20260904131457 54 329 3.0 4.0 0.00 0.00 0.00 88 1011.8
20260904131351 0 0.0 0.0 0.00 0.00 0.00
20260904130957 54 322 3.0 4.0 0.00 0.00 0.00 88 1011.8
20260904130852 0 0.0 0.0 0.00 0.00 0.00
20260904130458 54 328 2.0 3.0 0.00 0.00 0.00 88 1011.8
20260904130351 0 0.0 0.0 0.00 0.00 0.00
20260904125958 53 313 1.0 3.0 0.00 0.00 0.00 88 1011.8
20260904125849 0 0.0 0.0 0.00 0.00 0.00
20260904125458 53 339 3.0 5.0 0.00 0.00 0.00 88 1011.8
20260904125345 0 0.0 0.0 0.00 0.00 0.00
20260904124957 53 323 1.0 2.0 0.00 0.00 0.00 87 1011.8
20260904124846 0 0.0 0.0 0.00 0.00 0.00
20260904124500 53 303 0.0 1.0 0.00 0.00 0.00 87 1011.8
20260904124345 0 0.0 0.0 0.00 0.00 0.00
20260904123957 53 360 0.0 0.0 0.00 0.00 0.00 86 1011.7
20260904123845 0 0.0 0.0 0.00 0.00 0.00
20260904123458 53 46 1.0 2.0 0.00 0.00 0.00 86 1011.6
20260904123342 0 0.0 0.0 0.00 0.00 0.00
20260904122957 53 46 1.0 2.0 0.00 0.00 0.00 85 1011.7
20260904122843 0 0.0 0.0 0.00 0.00 0.00
20260904122457 53 34 1.0 2.0 0.00 0.00 0.00 85 1011.7
20260904122342 0 0.0 0.0 0.00 0.00 0.00
20260904121957 53 47 1.0 2.0 0.00 0.00 0.00 86 1011.6
20260904121844 0 0.0 0.0 0.00 0.00 0.00
20260904121457 53 49 0.0 2.0 0.00 0.00 0.00 86 1011.5
20260904121342 0 0.0 0.0 0.00 0.00 0.00
20260904120957 53 40 0.0 1.0 0.00 0.00 0.00 85 1011.5
20260904120457 53 154 0.0 1.0 0.00 0.00 0.00 86 1011.5
20260904120342 0 0.0 0.0 0.00 0.00 0.00
20260904115957 54 61 0.0 2.0 0.00 0.00 0.00 87 1011.4
20260904115843 0 0.0 0.0 0.00 0.00 0.00
20260904115457 54 159 1.0 2.0 0.00 0.00 0.00 87 1011.4
20260904115343 0 0.0 0.0 0.00 0.00 0.00
20260904114957 54 205 0.0 2.0 0.00 0.00 0.00 87 1011.4
20260904114843 0 0.0 0.0 0.00 0.00 0.00
20260904114459 54 320 0.0 2.0 0.00 0.00 0.00 87 1011.2
20260904114343 0 0.0 0.0 0.00 0.00 0.00
20260904113957 54 338 2.0 4.0 0.00 0.00 0.00 87 1011.2
20260904113841 0 0.0 0.0 0.00 0.00 0.00
20260904113457 54 335 2.0 4.0 0.00 0.00 0.00 87 1011.2
20260904113003 54 318 3.0 6.0 0.00 0.00 0.00 87 1011.1
20260904112840 0 0.0 0.0 0.00 0.00 0.00
20260904112457 54 339 1.0 4.0 0.00 0.00 0.00 86 1011.1
20260904112340 0 0.0 0.0 0.00 0.00 0.00
20260904111957 54 320 1.0 2.0 0.00 0.00 0.00 86 1011.0
20260904111841 0 0.0 0.0 0.00 0.00 0.00
20260904111458 54 323 3.0 6.0 0.00 0.00 0.00 85 1011.0
20260904111342 0 0.0 0.0 0.00 0.00 0.00
20260904110957 54 316 0.0 2.0 0.00 0.00 0.00 83 1011.1
20260904110841 0 0.0 0.0 0.00 0.00 0.00
20260904110458 54 117 1.0 2.0 0.00 0.00 0.00 84 1011.1
20260904105958 54 27 0.0 2.0 0.00 0.00 0.00 82 1011.1
20260904105841 0 0.0 0.0 0.00 0.00 0.00
20260904105459 54 76 0.0 2.0 0.00 0.00 0.00 82 1011.0
20260904105341 0 0.0 0.0 0.00 0.00 0.00
20260904104957 54 102 1.0 2.0 0.00 0.00 0.00 82 1011.0
20260904104839 0 0.0 0.0 0.00 0.00 0.00
20260904104457 54 47 0.0 1.0 0.00 0.00 0.00 84 1010.9
20260904104339 0 0.0 0.0 0.00 0.00 0.00
20260904103957 54 338 1.0 2.0 0.00 0.00 0.00 83 1010.9
20260904103838 0 0.0 0.0 0.00 0.00 0.00
20260904103457 54 351 0.0 2.0 0.00 0.00 0.00 82 1010.9
20260904103339 0 0.0 0.0 0.00 0.00 0.00
20260904102958 54 146 0.0 1.0 0.00 0.00 0.00 82 1010.9
20260904102838 0 0.0 0.0 0.00 0.00 0.00
20260904102457 54 124 0.0 1.0 0.00 0.00 0.00 82 1010.9
20260904102339 0 0.0 0.0 0.00 0.00 0.00
20260904101957 54 59 0.0 2.0 0.00 0.00 0.00 82 1010.9
20260904101844 0 0.0 0.0 0.00 0.00 0.00
20260904101458 54 14 0.0 2.0 0.00 0.00 0.00 84 1010.9
20260904101339 0 0.0 0.0 0.00 0.00 0.00
20260904100957 54 349 1.0 2.0 0.00 0.00 0.00 84 1010.9
20260904100839 0 0.0 0.0 0.00 0.00 0.00
20260904100458 54 341 1.0 2.0 0.00 0.00 0.00 83 1010.8
20260904100339 0 0.0 0.0 0.00 0.00 0.00
20260904095957 54 332 2.0 3.0 0.00 0.00 0.00 84 1010.8
20260904095839 0 0.0 0.0 0.00 0.00 0.00
20260904095457 54 341 3.0 5.0 0.00 0.00 0.00 84 1010.8
20260904094957 55 336 2.0 4.0 0.00 0.00 0.00 83 1010.7
20260904094837 0 0.0 0.0 0.00 0.00 0.00
20260904094457 54 341 3.0 6.0 0.00 0.00 0.00 83 1010.7
20260904093957 54 336 3.0 5.0 0.00 0.00 0.00 82 1010.7
20260904093837 0 0.0 0.0 0.00 0.00 0.00
20260904093500 54 332 3.0 4.0 0.00 0.00 0.00 83 1010.8
20260904093337 0 0.0 0.0 0.00 0.00 0.00
20260904092957 54 338 2.0 4.0 0.00 0.00 0.00 82 1010.8
20260904092837 0 0.0 0.0 0.00 0.00 0.00
20260904092457 54 356 2.0 3.0 0.00 0.00 0.00 82 1010.9
20260904091957 53 350 2.0 4.0 0.00 0.00 0.00 83 1010.9
20260904091457 53 330 2.0 3.0 0.00 0.00 0.00 81 1010.9
20260904091337 0 0.0 0.0 0.00 0.00 0.00
20260904090958 53 39 1.0 3.0 0.00 0.00 0.00 81 1010.9
20260904090838 0 0.0 0.0 0.00 0.00 0.00
20260904090457 53 28 2.0 3.0 0.00 0.00 0.00 81 1011.0
20260904090337 0 0.0 0.0 0.00 0.00 0.00
20260904085957 52 45 1.0 3.0 0.00 0.00 0.00 82 1011.0
20260904085834 0 0.0 0.0 0.00 0.00 0.00
20260904085457 52 13 2.0 3.0 0.00 0.00 0.00 81 1011.0
20260904085331 0 0.0 0.0 0.00 0.00 0.00
20260904084957 53 15 2.0 3.0 0.00 0.00 0.00 81 1011.0
20260904084831 0 0.0 0.0 0.00 0.00 0.00
20260904084457 53 37 2.0 3.0 0.00 0.00 0.00 81 1011.0
20260904084332 0 0.0 0.0 0.00 0.00 0.00
20260904083957 53 19 2.0 4.0 0.00 0.00 0.00 81 1011.0
20260904083828 0 0.0 0.0 0.00 0.00 0.00
20260904083457 53 26 2.0 3.0 0.00 0.00 0.00 81 1011.1
20260904083328 0 0.0 0.0 0.00 0.00 0.00
20260904082957 52 26 1.0 3.0 0.00 0.00 0.00 80 1011.1
20260904082829 0 0.0 0.0 0.00 0.00 0.00
20260904082457 53 33 1.0 3.0 0.00 0.00 0.00 79 1011.1
20260904081957 53 41 2.0 3.0 0.00 0.00 0.00 79 1011.1
20260904081829 0 0.0 0.0 0.00 0.00 0.00
20260904081457 53 38 1.0 3.0 0.00 0.00 0.00 80 1011.2
20260904081329 0 0.0 0.0 0.00 0.00 0.00
20260904080957 53 38 2.0 3.0 0.00 0.00 0.00 79 1011.2
20260904080834 0 0.0 0.0 0.00 0.00 0.00
20260904080457 53 46 2.0 3.0 0.00 0.00 0.00 79 1011.2
20260904080329 0 0.0 0.0 0.00 0.00 0.00
20260904075958 53 352 2.0 4.0 0.00 0.00 0.00 80 1011.2
20260904075826 0 0.0 0.0 0.00 0.00 0.00
20260904075457 53 11 1.0 2.0 0.00 0.00 0.00 77 1011.3
20260904075327 0 0.0 0.0 0.00 0.00 0.00
20260904074957 53 3 1.0 3.0 0.00 0.00 0.00 76 1011.2
20260904074826 0 0.0 0.0 0.00 0.00 0.00
20260904074457 53 37 2.0 3.0 0.00 0.00 0.00 76 1011.1
20260904074327 0 0.0 0.0 0.00 0.00 0.00
20260904073959 53 68 1.0 3.0 0.00 0.00 0.00 77 1011.1
20260904073827 0 0.0 0.0 0.00 0.00 0.00
20260904073457 53 41 1.0 3.0 0.00 0.00 0.00 77 1011.1
20260904073324 0 0.0 0.0 0.00 0.00 0.00
20260904072957 53 47 2.0 3.0 0.00 0.00 0.00 77 1011.0
20260904072824 0 0.0 0.0 0.00 0.00 0.00
20260904072457 53 2 2.0 4.0 0.00 0.00 0.00 78 1011.0
20260904072323 0 0.0 0.0 0.00 0.00 0.00
20260904071957 54 12 1.0 3.0 0.00 0.00 0.00 78 1011.0
20260904071824 0 0.0 0.0 0.00 0.00 0.00
20260904071457 54 40 2.0 2.0 0.00 0.00 0.00 78 1011.0
20260904071324 0 0.0 0.0 0.00 0.00 0.00
20260904070958 55 337 2.0 4.0 0.00 0.00 0.00 79 1010.9
20260904070457 55 346 1.0 2.0 0.00 0.00 0.00 80 1010.9
20260904065957 55 333 3.0 5.0 0.00 0.00 0.02 79 1010.9
20260904065821 0 0.0 0.0 0.00 0.00 0.00
20260904065457 55 334 3.0 5.0 0.00 0.00 0.02 78 1010.9
20260904065321 0 0.0 0.0 0.00 0.00 0.00